Zurück zum Katalog

SIT-HSE

AktivWissenschaftSSO
NORAD 61763·PAYLOAD·🇷🇺 Russia

Gestartet Nov 4, 2024 von Vostochny Cosmodrome

Loading…

Nächste Überflüge (nächste 24 Stunden)

TLE

AktuellSource: Space-Track

Epoche: Sep 14, 2026, 10:51 UTC

1 61763U 24199AE  26257.45233954  .00038677  00000-0  49681-3 0  9997
2 61763  97.2793 135.4977 0002363 344.1216  15.9966 15.59014932151465

Verfolge SIT-HSE in Echtzeit mit AllMySat

Download on the App Store